Weather History for KIXD - December, 2013

Change the Weather History Date:

Sunday, December 15, 2013

  Actual Average (KOJC) Record (KOJC)
Temperature  
Mean Temperature 32 °F 32 °F  
Max Temperature 48 °F 41 °F 66 °F (1984)
Min Temperature 15 °F 24 °F -16 °F (1989)
Degree Days  
Heating Degree Days 34 33  
Month to date heating degree days 462  
Since 1 July heating degree days 1417  
Cooling Degree Days 0 0  
Month to date cooling degree days 0  
Year to date cooling degree days 1349  
Moisture  
Dew Point 23 °F    
Average Humidity 69    
Maximum Humidity 88    
Minimum Humidity 48    
Precipitation  
Precipitation 0.00 in 0.05 in 2.30 in (1971)
Month to date precipitation 0.76  
Year to date precipitation 39.16  
Sea Level Pressure  
Sea Level Pressure 30.10 in    
Wind  
Wind Speed 8 mph (SSW)    
Max Wind Speed 16 mph    
Max Gust Speed -    
Visibility 8 miles    
Events Snow    
T = Trace of Precipitation, MM = Missing Value Source: NWS Daily Summary

Daily Weather History Graph

Daily Weather History Graph

Search for Another Location

Airport or City:

Trip Planner

Search our weather history database for the weather conditions in past years. The results will help you decide how hot, cold, wet, or windy it might be!

Date:

Astronomy

Dec. 15, 2013 Rise Set
Actual Time 7:30 AM CST 4:58 PM CST
Civil Twilight 7:01 AM CST 5:28 PM CST
Nautical Twilight 6:27 AM CST 6:02 PM CST
Astronomical Twilight 5:55 AM CST 6:34 PM CST
Moon 4:03 PM CST (12/15) 5:48 AM CST (12/15)
Length of Visible Light 10h 27m
Length of Day
9h 27m
Waxing Gibbous, 98% of the Moon is Illuminated
Dec 15
Waxing Gibbous
Dec 17
Full
Dec 25
Last Quarter
Jan 1
New
Jan 7
First Quarter

Hourly Weather History & Observations

Time (CST) Temp. Windchill Dew Point Humidity Pressure Visibility Wind Dir Wind Speed Gust Speed Precip Events Conditions
12:53 AM 16.0 °F 10.4 °F 12.9 °F 88% 30.25 in 6.0 mi SSW 3.5 mph - N/A   Clear
1:53 AM 15.1 °F 7.7 °F 10.9 °F 84% 30.22 in 6.0 mi South 4.6 mph - 0.00 in   Clear
2:53 AM 16.0 °F 6.3 °F 12.9 °F 88% 30.22 in 5.0 mi SSW 6.9 mph - 0.00 in Snow Light Snow
3:53 AM 16.0 °F 6.3 °F 12.9 °F 88% 30.23 in 5.0 mi SSW 6.9 mph - 0.00 in Snow Light Snow
4:53 AM 17.1 °F 6.6 °F 12.9 °F 84% 30.20 in 6.0 mi South 8.1 mph - 0.00 in   Clear
5:53 AM 19.0 °F 7.5 °F 15.1 °F 85% 30.19 in 7.0 mi SSW 10.4 mph - N/A   Clear
6:53 AM 18.0 °F 7.7 °F 14.0 °F 84% 30.17 in 6.0 mi South 8.1 mph - N/A   Clear
7:53 AM 21.0 °F 11.4 °F 17.1 °F 85% 30.15 in 6.0 mi South 8.1 mph - N/A   Clear
8:53 AM 26.1 °F 14.0 °F 21.0 °F 81% 30.14 in 8.0 mi SSW 15.0 mph - N/A   Clear
9:53 AM 30.9 °F 19.8 °F 24.1 °F 76% 30.14 in 10.0 mi SW 16.1 mph - N/A   Clear
10:53 AM 36.0 °F 28.5 °F 27.0 °F 70% 30.13 in 10.0 mi SW 10.4 mph - N/A   Clear
11:53 AM 41.0 °F 34.7 °F 28.9 °F 62% 30.10 in 10.0 mi SW 10.4 mph - N/A   Clear
12:53 PM 43.0 °F 36.8 °F 28.9 °F 58% 30.08 in 10.0 mi SW 11.5 mph - N/A   Clear
1:53 PM 45.0 °F 40.1 °F 28.9 °F 53% 30.06 in 10.0 mi SW 9.2 mph - N/A   Clear
2:53 PM 48.0 °F - 28.9 °F 48% 30.06 in 10.0 mi SW 10.4 mph - N/A   Clear
3:53 PM 48.0 °F - 28.9 °F 48% 30.05 in 10.0 mi SW 8.1 mph - N/A   Clear
4:53 PM 43.0 °F 40.3 °F 28.9 °F 58% 30.04 in 10.0 mi South 4.6 mph - N/A   Scattered Clouds
5:53 PM 41.0 °F 39.0 °F 28.9 °F 62% 30.03 in 10.0 mi South 3.5 mph - N/A   Mostly Cloudy
6:53 PM 39.9 °F 35.8 °F 28.9 °F 65% 30.03 in 10.0 mi South 5.8 mph - N/A   Scattered Clouds
7:53 PM 43.0 °F 36.8 °F 27.0 °F 53% 30.02 in 10.0 mi SSW 11.5 mph - N/A   Scattered Clouds
8:53 PM 42.1 °F 35.2 °F 26.1 °F 53% 30.01 in 10.0 mi SSW 12.7 mph - N/A   Clear
9:53 PM 39.0 °F 31.4 °F 26.1 °F 60% 30.00 in 10.0 mi SW 12.7 mph - N/A   Clear
10:53 PM 39.9 °F 33.4 °F 25.0 °F 55% 29.99 in 10.0 mi SW 10.4 mph - N/A   Clear
11:53 PM 37.9 °F 32.7 °F 25.0 °F 60% 29.99 in 10.0 mi WSW 6.9 mph - N/A   Clear